Woodlawn, VA

6:27 PM EST on February 27, 2017 (GMT -0500)
Twin County

Weather History for KHLX - October, 2013

Change the Weather History Date:

Thursday, October 31, 2013

  Actual Average (KBLF) Record (KBLF)
Temperature  
Mean Temperature 63 °F -  
Max Temperature 64 °F 60 °F 75 °F (1982)
Min Temperature 62 °F 44 °F 28 °F (1993)
Degree Days  
Heating Degree Days 2    
Growing Degree Days 13 (Base 50)    
Moisture  
Dew Point 57 °F    
Average Humidity 81    
Maximum Humidity 94    
Minimum Humidity 73    
Precipitation  
Precipitation 0.00 in - - ()
Sea Level Pressure  
Sea Level Pressure 30.10 in    
Wind  
Wind Speed 8 mph (South)    
Max Wind Speed 22 mph    
Max Gust Speed 30 mph    
Visibility 10 miles    
Events      
Averages and records for this station are not official NWS values.
T = Trace of Precipitation, MM = Missing Value Source: NWS Daily Summary

Daily Weather History Graph

Daily Weather History Graph

Search for Another Location

Airport or City:

Trip Planner

Search our weather history database for the weather conditions in past years. The results will help you decide how hot, cold, wet, or windy it might be!

Date:

Astronomy

Oct. 31, 2013 Rise Set
Actual Time 7:46 AM EDT 6:26 PM EDT
Civil Twilight 7:19 AM EDT 6:53 PM EDT
Nautical Twilight 6:48 AM EDT 7:24 PM EDT
Astronomical Twilight 6:18 AM EDT 7:54 PM EDT
Moon 4:38 AM EDT (10/31) 4:40 PM EDT (10/31)
Length of Visible Light 11h 34m
Length of Day
10h 40m
Waning Crescent, 10% of the Moon is Illuminated
Oct 31
Waning Crescent
Nov 3
New
Nov 10
First Quarter
Nov 17
Full
Nov 25
Last Quarter

Hourly Weather History & Observations

Time (EDT) Temp. Dew Point Humidity Pressure Visibility Wind Dir Wind Speed Gust Speed Precip Events Conditions
12:15 AM 64.4 °F 59.0 °F 83% 30.25 in 10.0 mi South 5.8 mph - N/A   Overcast
12:35 AM 64.4 °F 57.2 °F 77% 30.24 in 10.0 mi South 4.6 mph - N/A   Overcast
12:55 AM 64.4 °F 59.0 °F 83% 30.23 in 10.0 mi South 4.6 mph - N/A   Mostly Cloudy
1:15 AM 64.4 °F 57.2 °F 77% 30.23 in 10.0 mi South 4.6 mph - N/A   Mostly Cloudy
1:35 AM 64.4 °F 57.2 °F 77% 30.23 in 10.0 mi South 6.9 mph - N/A   Overcast
1:55 AM 64.4 °F 57.2 °F 77% 30.23 in 10.0 mi South 6.9 mph - N/A   Mostly Cloudy
2:15 AM 62.6 °F 57.2 °F 82% 30.23 in 10.0 mi South 5.8 mph - N/A   Overcast
2:35 AM 64.4 °F 57.2 °F 77% 30.23 in 10.0 mi South 5.8 mph - N/A   Overcast
2:55 AM 62.6 °F 57.2 °F 82% 30.22 in 10.0 mi South 3.5 mph - N/A   Mostly Cloudy
3:15 AM 62.6 °F 57.2 °F 82% 30.22 in 10.0 mi South 5.8 mph - N/A   Scattered Clouds
3:35 AM 62.6 °F 57.2 °F 82% 30.21 in 10.0 mi South 5.8 mph - N/A   Scattered Clouds
3:55 AM 62.6 °F 57.2 °F 82% 30.20 in 10.0 mi South 5.8 mph - N/A   Clear
4:15 AM 62.6 °F 57.2 °F 82% 30.20 in 10.0 mi South 6.9 mph - N/A   Clear
4:35 AM 62.6 °F 57.2 °F 82% 30.19 in 10.0 mi South 5.8 mph - N/A   Clear
4:55 AM 62.6 °F 57.2 °F 82% 30.19 in 10.0 mi South 6.9 mph - N/A   Scattered Clouds
5:15 AM 62.6 °F 57.2 °F 82% 30.18 in 10.0 mi South 4.6 mph - N/A   Scattered Clouds
5:35 AM 62.6 °F 57.2 °F 82% 30.19 in 10.0 mi South 9.2 mph - N/A   Scattered Clouds
5:55 AM 62.6 °F 57.2 °F 82% 30.18 in 10.0 mi South 8.1 mph - N/A   Scattered Clouds
6:15 AM 62.6 °F 57.2 °F 82% 30.18 in 10.0 mi South 10.4 mph 16.1 mph N/A   Clear
6:35 AM 62.6 °F 57.2 °F 82% 30.18 in 10.0 mi South 11.5 mph 17.3 mph N/A   Clear
6:55 AM 62.6 °F 57.2 °F 82% 30.18 in 10.0 mi South 6.9 mph - N/A   Clear
7:15 AM 62.6 °F 57.2 °F 82% 30.17 in 10.0 mi South 9.2 mph 17.3 mph N/A   Clear
7:35 AM 62.6 °F 57.2 °F 82% 30.17 in 10.0 mi SSW 10.4 mph - N/A   Clear
7:55 AM 62.6 °F 57.2 °F 82% 30.17 in 10.0 mi SSW 10.4 mph - N/A   Clear
8:15 AM 62.6 °F 57.2 °F 82% 30.17 in 10.0 mi South 6.9 mph - N/A   Clear
8:35 AM 62.6 °F 57.2 °F 82% 30.18 in 10.0 mi South 8.1 mph - N/A   Clear
8:55 AM 62.6 °F 57.2 °F 82% 30.18 in 10.0 mi South 6.9 mph - N/A   Clear
9:15 AM 62.6 °F 57.2 °F 82% 30.18 in 10.0 mi South 8.1 mph - N/A   Clear
9:35 AM 62.6 °F 57.2 °F 82% 30.18 in 10.0 mi South 9.2 mph - N/A   Clear
9:55 AM 64.4 °F 57.2 °F 77% 30.17 in 10.0 mi South 9.2 mph - N/A   Clear
10:15 AM 64.4 °F 57.2 °F 77% 30.16 in 10.0 mi South 10.4 mph 16.1 mph N/A   Clear
10:35 AM 64.4 °F 57.2 °F 77% 30.15 in 10.0 mi South 12.7 mph 19.6 mph N/A   Clear
10:55 AM 64.4 °F 57.2 °F 77% 30.14 in 10.0 mi South 10.4 mph 21.9 mph N/A   Clear
11:15 AM 64.4 °F 57.2 °F 77% 30.13 in 10.0 mi South 10.4 mph 23.0 mph N/A   Clear
11:35 AM 64.4 °F 57.2 °F 77% 30.13 in 10.0 mi South 15.0 mph 21.9 mph N/A   Clear
11:55 AM 64.4 °F 57.2 °F 77% 30.13 in 10.0 mi South 13.8 mph 24.2 mph N/A   Clear
12:15 PM 64.4 °F 57.2 °F 77% 30.13 in 10.0 mi South 11.5 mph 20.7 mph N/A   Clear
12:35 PM 64.4 °F 57.2 °F 77% 30.11 in 10.0 mi South 12.7 mph 17.3 mph N/A   Clear
12:55 PM 64.4 °F 57.2 °F 77% 30.10 in 10.0 mi South 13.8 mph 24.2 mph N/A   Clear
1:15 PM 64.4 °F 57.2 °F 77% 30.09 in 10.0 mi South 19.6 mph 25.3 mph N/A   Scattered Clouds
1:35 PM 64.4 °F 57.2 °F 77% 30.08 in 10.0 mi South 15.0 mph 27.6 mph N/A   Scattered Clouds
1:55 PM 64.4 °F 57.2 °F 77% 30.06 in 10.0 mi SSW 21.9 mph 29.9 mph N/A   Clear
2:15 PM 64.4 °F 55.4 °F 73% 30.06 in 10.0 mi SSW 15.0 mph 25.3 mph N/A   Scattered Clouds
2:35 PM 64.4 °F 55.4 °F 73% 30.07 in 10.0 mi SSW 18.4 mph 26.5 mph N/A   Mostly Cloudy
2:55 PM 64.4 °F 55.4 °F 73% 30.06 in 10.0 mi South 15.0 mph 21.9 mph N/A   Mostly Cloudy
3:15 PM 62.6 °F 55.4 °F 77% 30.06 in 10.0 mi South 11.5 mph 20.7 mph N/A   Scattered Clouds
3:35 PM 62.6 °F 55.4 °F 77% 30.05 in 10.0 mi South 10.4 mph 21.9 mph N/A   Scattered Clouds
3:55 PM 62.6 °F 55.4 °F 77% 30.02 in 10.0 mi South 12.7 mph 18.4 mph N/A   Clear
4:15 PM 62.6 °F 55.4 °F 77% 30.01 in 10.0 mi South 10.4 mph 20.7 mph N/A   Clear
4:35 PM 62.6 °F 55.4 °F 77% 30.02 in 10.0 mi South 9.2 mph 19.6 mph N/A   Mostly Cloudy
4:55 PM 62.6 °F 55.4 °F 77% 30.01 in 10.0 mi South 8.1 mph - N/A   Overcast
5:15 PM 62.6 °F 57.2 °F 82% 30.01 in 10.0 mi South 9.2 mph 16.1 mph N/A   Overcast
5:35 PM 62.6 °F 57.2 °F 82% 29.99 in 10.0 mi South 10.4 mph - N/A   Overcast
5:55 PM 62.6 °F 57.2 °F 82% 30.00 in 10.0 mi South 8.1 mph - N/A   Overcast
6:15 PM 62.6 °F 57.2 °F 82% 29.99 in 10.0 mi South 8.1 mph 16.1 mph N/A   Overcast
6:35 PM 62.6 °F 57.2 °F 82% 29.98 in 10.0 mi South 11.5 mph 18.4 mph N/A   Overcast
6:55 PM 62.6 °F 57.2 °F 82% 29.99 in 10.0 mi South 10.4 mph 18.4 mph N/A   Overcast
7:15 PM 62.6 °F 57.2 °F 82% 29.99 in 10.0 mi South 8.1 mph - N/A   Overcast
7:35 PM 62.6 °F 57.2 °F 82% 29.99 in 10.0 mi South 8.1 mph - N/A   Overcast
7:55 PM 62.6 °F 57.2 °F 82% 29.99 in 10.0 mi South 9.2 mph 19.6 mph N/A   Overcast
8:15 PM 62.6 °F 57.2 °F 82% 29.99 in 10.0 mi South 6.9 mph - N/A   Overcast
8:35 PM 62.6 °F 59.0 °F 88% 29.97 in 10.0 mi South 13.8 mph 18.4 mph N/A   Overcast
8:55 PM 62.6 °F 59.0 °F 88% 29.97 in 10.0 mi South 9.2 mph 17.3 mph N/A   Mostly Cloudy
9:15 PM 62.6 °F 59.0 °F 88% 29.96 in 10.0 mi South 12.7 mph 20.7 mph N/A   Overcast
9:35 PM 62.6 °F 59.0 °F 88% 29.95 in 10.0 mi South 10.4 mph 18.4 mph N/A   Overcast
9:55 PM 62.6 °F 59.0 °F 88% 29.94 in 10.0 mi South 10.4 mph 23.0 mph N/A   Overcast
10:15 PM 62.6 °F 60.8 °F 94% 29.94 in 10.0 mi South 15.0 mph 27.6 mph N/A   Mostly Cloudy
10:35 PM 62.6 °F 60.8 °F 94% 29.92 in 10.0 mi South 9.2 mph 19.6 mph N/A   Mostly Cloudy
10:55 PM 62.6 °F 60.8 °F 94% 29.91 in 10.0 mi South 12.7 mph 20.7 mph N/A   Mostly Cloudy
11:15 PM 62.6 °F 60.8 °F 94% 29.89 in 10.0 mi South 12.7 mph 28.8 mph N/A   Overcast
11:35 PM 62.6 °F 60.8 °F 94% 29.89 in 10.0 mi South 16.1 mph 24.2 mph N/A   Overcast
11:55 PM 64.4 °F 60.8 °F 88% 29.87 in 10.0 mi South 16.1 mph 28.8 mph N/A   Overcast